Date String (YYYY-MM-DD hh:mm:ss) UTC,Instrument flags,absolute air pressure of the measurement (hPa),sample flow rate (lpm),inlet stack bypass flow (lpm),air temperature of the measurement (°C),ambient temperature measured by the external sensor (°C),aerosol sample conditioner tube jacket temperature (°C),OPC LED temperature (°C),internal box temperature (°C),relative humidity of the measurement (%),span deviation,mass concentration of particles derived from Lorenz-Mie calculation of OPC scattering (μg/m³),mass concentration of particles derived from Lorenz-Mie calculation of OPC scattering (μg/m³),mass concentration of particles derived from Lorenz-Mie calculation of OPC scattering (μg/m³)
DateTimeUTC,F1_M11,P_M11,Q1_M11,Q2_M11,T1_M11,T2_M11,T3_M11,T4_M11,T5_M11,U1_M11,ZSPAN_M11,X0_M11,X2_M11,X1_M11
2024-06-18 06:00:00,SystemResetWarning,0815.3,4.99,000.00,029.9,029.4,000.0,037.9,031.7,011.3,0000.0,0008.81,0003.47,0002.07
2024-06-18 06:01:00,SystemResetWarning,0815.3,5.00,000.00,030.0,029.5,000.0,037.9,031.8,011.2,0000.0,0008.31,0003.48,0002.08
2024-06-18 06:02:00,SystemResetWarning,0815.3,5.00,000.00,030.0,029.5,000.0,038.0,031.9,011.0,0000.0,0008.41,0003.46,0002.09
2024-06-18 06:03:00,SystemResetWarning,0815.3,5.00,000.00,030.1,029.6,000.0,038.0,031.9,010.9,0000.0,0008.41,0003.46,0002.09
2024-06-18 06:04:00,SystemResetWarning,0815.3,5.00,000.00,030.2,029.7,000.0,038.1,032.0,010.9,0000.0,0008.26,0003.41,0002.09
2024-06-18 06:05:00,SystemResetWarning,0815.3,4.99,000.00,030.1,028.9,000.0,038.2,031.6,011.0,0000.0,0008.40,0003.42,0002.09
2024-06-18 06:06:00,SystemResetWarning,0815.2,5.01,000.00,029.8,026.6,000.0,038.2,030.6,010.8,0000.0,0008.81,0003.39,0002.11
2024-06-18 06:07:00,SystemResetWarning,0815.2,5.01,000.00,029.5,026.5,000.0,038.2,030.4,010.7,0000.0,0009.40,0003.39,0002.11
2024-06-18 06:08:00,SystemResetWarning,0815.2,4.99,000.00,029.4,026.9,000.0,038.1,030.5,010.8,0000.0,0009.60,0003.36,0002.11
2024-06-18 06:09:00,SystemResetWarning,0815.3,5.00,000.00,029.4,027.3,000.0,038.0,030.8,010.8,0000.0,0009.53,0003.34,0002.11
2024-06-18 06:10:00,SystemResetWarning,0815.3,5.00,000.00,029.5,027.7,000.0,037.9,030.9,010.7,0000.0,0009.55,0003.36,0002.12
2024-06-18 06:11:00,SystemResetWarning,0815.3,5.01,000.00,029.5,028.0,000.0,037.9,031.1,010.6,0000.0,0009.47,0003.36,0002.14
2024-06-18 06:12:00,SystemResetWarning,0815.3,5.00,000.00,029.6,028.3,000.0,037.9,031.2,010.6,0000.0,0009.00,0003.38,0002.15
2024-06-18 06:13:00,SystemResetWarning,0815.3,5.00,000.00,029.6,028.5,000.0,037.9,031.3,010.8,0000.0,0008.87,0003.42,0002.15
2024-06-18 06:14:00,SystemResetWarning,0815.3,5.00,000.00,029.7,028.7,000.0,037.9,031.4,011.0,0000.0,0009.02,0003.44,0002.15
2024-06-18 06:15:00,SystemResetWarning,0815.3,5.01,000.00,029.7,028.9,000.0,037.9,031.5,011.0,0000.0,0009.36,0003.45,0002.14
2024-06-18 06:16:00,SystemResetWarning,0815.3,5.00,000.00,029.8,029.0,000.0,037.9,031.6,010.8,0000.0,0009.96,0003.45,0002.15
2024-06-18 06:17:00,SystemResetWarning,0815.3,4.99,000.00,029.8,029.2,000.0,038.0,031.6,010.7,0000.0,0009.96,0003.43,0002.14
2024-06-18 06:18:00,SystemResetWarning,0815.3,5.00,000.00,029.9,029.3,000.0,038.0,031.7,010.6,0000.0,0009.78,0003.42,0002.14
2024-06-18 06:19:00,SystemResetWarning,0815.3,5.00,000.00,030.0,029.4,000.0,038.0,031.8,010.5,0000.0,0009.86,0003.44,0002.16
2024-06-18 06:20:00,SystemResetWarning,0815.3,5.00,000.00,030.0,029.5,000.0,038.0,031.8,010.6,0000.0,0009.89,0003.45,0002.16
2024-06-18 06:21:00,SystemResetWarning,0815.3,5.00,000.00,030.1,029.5,000.0,038.1,031.9,010.7,0000.0,0010.25,0003.43,0002.15
2024-06-18 06:22:00,SystemResetWarning,0815.3,5.01,000.00,030.1,029.6,000.0,038.1,031.9,010.7,0000.0,0010.68,0003.43,0002.15
2024-06-18 06:23:00,SystemResetWarning,0815.2,5.01,000.00,030.2,029.7,000.0,038.2,032.0,010.4,0000.0,0011.33,0003.45,0002.15
2024-06-18 06:24:00,SystemResetWarning,0815.2,4.98,000.00,030.2,029.2,000.0,038.2,031.7,010.2,0000.0,0011.83,0003.44,0002.15
2024-06-18 06:25:00,SystemResetWarning,0815.1,5.00,000.00,029.8,026.8,000.0,038.3,030.6,010.7,0000.0,0012.44,0003.41,0002.15
2024-06-18 06:26:00,SystemResetWarning,0815.1,5.02,000.00,029.5,026.4,000.0,038.3,030.3,010.9,0000.0,0012.13,0003.42,0002.16
2024-06-18 06:27:00,SystemResetWarning,0815.1,5.00,000.00,029.4,026.7,000.0,038.2,030.5,010.9,0000.0,0011.87,0003.42,0002.16
2024-06-18 06:28:00,SystemResetWarning,0815.2,5.00,000.00,029.4,027.2,000.0,038.1,030.7,011.4,0000.0,0011.93,0003.42,0002.17
2024-06-18 06:29:00,SystemResetWarning,0815.2,5.00,000.00,029.4,027.5,000.0,038.0,030.9,011.3,0000.0,0011.87,0003.43,0002.17
2024-06-18 06:30:00,SystemResetWarning,0815.2,5.00,000.00,029.5,027.9,000.0,038.0,031.0,011.3,0000.0,0011.33,0003.43,0002.18
2024-06-18 06:31:00,SystemResetWarning,0815.2,5.00,000.00,029.5,028.2,000.0,037.9,031.2,011.3,0000.0,0012.04,0003.43,0002.17
2024-06-18 06:32:00,SystemResetWarning,0815.2,5.01,000.00,029.6,028.4,000.0,037.9,031.3,011.3,0000.0,0011.96,0003.49,0002.17
2024-06-18 06:33:00,SystemResetWarning,0815.2,5.00,000.00,029.6,028.6,000.0,037.9,031.3,010.9,0000.0,0011.91,0003.49,0002.15
2024-06-18 06:34:00,SystemResetWarning,0815.2,4.99,000.00,029.7,028.8,000.0,037.9,031.4,011.2,0000.0,0011.70,0003.45,0002.14
2024-06-18 06:35:00,SystemResetWarning,0815.2,4.99,000.00,029.7,029.0,000.0,037.9,031.5,011.2,0000.0,0011.09,0003.42,0002.13
2024-06-18 06:36:00,SystemResetWarning,0815.2,5.01,000.00,029.8,029.1,000.0,038.0,031.6,011.2,0000.0,0010.37,0003.42,0002.12
2024-06-18 06:37:00,SystemResetWarning,0815.3,5.01,000.00,029.9,029.2,000.0,038.0,031.7,011.1,0000.0,0010.34,0003.42,0002.12
2024-06-18 06:38:00,SystemResetWarning,0815.2,5.00,000.00,029.9,029.3,000.0,038.0,031.8,010.8,0000.0,0010.66,0003.39,0002.11
2024-06-18 06:39:00,SystemResetWarning,0815.2,5.00,000.00,030.0,029.4,000.0,038.0,031.7,010.7,0000.0,0009.89,0003.42,0002.11
2024-06-18 06:40:00,SystemResetWarning,0815.2,4.99,000.00,030.0,029.5,000.0,038.1,031.8,010.6,0000.0,0009.65,0003.40,0002.10
2024-06-18 06:41:00,SystemResetWarning,0815.2,5.00,000.00,030.1,029.6,000.0,038.1,031.9,010.9,0000.0,0010.14,0003.39,0002.08
2024-06-18 06:42:00,SystemResetWarning,0815.2,5.01,000.00,030.1,029.6,000.0,038.2,031.9,010.9,0000.0,0010.13,0003.43,0002.10
2024-06-18 06:43:00,SystemResetWarning,0815.3,5.01,000.00,030.2,029.7,000.0,038.2,032.0,010.7,0000.0,0010.12,0003.39,0002.11
2024-06-18 06:44:00,SystemResetWarning,0815.2,5.00,000.00,030.2,029.7,000.0,038.2,032.0,010.7,0000.0,0009.97,0003.36,0002.12
2024-06-18 06:45:00,SystemResetWarning,0815.3,4.99,000.00,030.3,029.8,000.0,038.3,032.1,010.7,0000.0,0010.06,0003.35,0002.13
2024-06-18 06:46:00,SystemResetWarning,0815.2,4.99,000.00,030.3,029.8,000.0,038.3,032.1,010.8,0000.0,0010.31,0003.37,0002.15
2024-06-18 06:47:00,SystemResetWarning,0815.2,5.00,000.00,030.4,029.9,000.0,038.4,032.1,010.6,0000.0,0010.45,0003.43,0002.18
2024-06-18 06:48:00,SystemResetWarning,0815.2,4.99,000.00,030.2,028.1,000.0,038.4,031.2,010.7,0000.0,0011.07,0003.44,0002.18
2024-06-18 06:49:00,SystemResetWarning,0815.1,5.01,000.00,029.8,026.4,000.0,038.5,030.5,010.9,0000.0,0010.66,0003.46,0002.19
2024-06-18 06:50:00,SystemResetWarning,0815.1,5.00,000.00,029.6,026.6,000.0,038.4,030.5,010.9,0000.0,0010.54,0003.44,0002.17
2024-06-18 06:51:00,SystemResetWarning,0815.1,5.00,000.00,029.5,027.0,000.0,038.3,030.6,010.9,0000.0,0010.62,0003.48,0002.18
2024-06-18 06:52:00,SystemResetWarning,0815.1,5.01,000.00,029.6,027.4,000.0,038.2,030.9,010.9,0000.0,0010.28,0003.50,0002.18
2024-06-18 06:53:00,SystemResetWarning,0815.1,4.99,000.00,029.6,027.8,000.0,038.1,031.1,011.1,0000.0,0009.57,0003.44,0002.17
2024-06-18 06:54:00,SystemResetWarning,0815.1,5.00,000.00,029.6,028.1,000.0,038.1,031.2,011.0,0000.0,0009.25,0003.44,0002.16
2024-06-18 06:55:00,SystemResetWarning,0815.2,5.00,000.00,029.7,028.4,000.0,038.1,031.3,010.9,0000.0,0009.10,0003.47,0002.14
2024-06-18 06:56:00,SystemResetWarning,0815.2,5.01,000.00,029.7,028.6,000.0,038.1,031.4,010.8,0000.0,0008.83,0003.47,0002.14
2024-06-18 06:57:00,SystemResetWarning,0815.2,5.00,000.00,029.8,028.8,000.0,038.1,031.5,010.9,0000.0,0009.51,0003.47,0002.14
2024-06-18 06:58:00,SystemResetWarning,0815.2,5.00,000.00,029.8,028.9,000.0,038.1,031.5,010.9,0000.0,0010.07,0003.41,0002.12
2024-06-18 06:59:00,SystemResetWarning,0815.2,5.00,000.00,029.9,029.1,000.0,038.1,031.6,010.8,0000.0,0009.86,0003.37,0002.11
